Overview Statistics Trail Chart Weather Telemetry Raw packets
 

This is the latest recevied weather packets stored in our database for station/object OM6ACB-6. If no packets are shown the sender has not sent any weather packets the latest 10 day(s).

<< 25 26 27 28 29 30 31 >>
Time Temp. Humidity Pressure Rain* Wind** Luminosity Snow
1788280410 20.56° C 22% 1023.9 hPa 0 mm - - -
1788279809 21.11° C 22% 1023.9 hPa 0 mm - - -
1788279209 21.11° C 22% 1024 hPa 0 mm - - -
1788278609 22.78° C 21% 1024.3 hPa 0 mm - - -
1788278008 24.44° C 20% 1024.4 hPa 0 mm - - -
1788277408 22.22° C 21% 1024 hPa 0 mm - - -
1788276808 26.11° C 20% 1024.4 hPa 0 mm - - -
1788276208 26.11° C 20% 1024.4 hPa 0 mm - - -
1788275607 24.44° C 20% 1024.3 hPa 0 mm - - -
1788275007 22.22° C 21% 1023.9 hPa 0 mm - - -
1788274407 23.33° C 21% 1023.9 hPa 0 mm - - -
1788273806 26.11° C 20% 1024.3 hPa 0 mm - - -
1788273206 26.11° C 20% 1024.2 hPa 0 mm - - -
1788272606 26.11° C 20% 1024.2 hPa 0 mm - - -
1788272006 25° C 20% 1024.2 hPa 0 mm - - -
1788271405 25° C 20% 1023.8 hPa 0 mm - - -
1788270805 23.33° C 21% 1023.8 hPa 0 mm - - -
1788270205 23.89° C 21% 1023.9 hPa 0 mm - - -
1788269604 22.78° C 21% 1023.9 hPa 0 mm - - -
1788269004 23.33° C 21% 1024.2 hPa 0 mm - - -
1788268404 26.67° C 20% 1024.4 hPa 0 mm - - -
1788267803 22.22° C 21% 1023.8 hPa 0 mm - - -
1788267203 22.78° C 21% 1023.9 hPa 0 mm - - -
1788266605 23.33° C 21% 1024 hPa 0 mm - - -
1788266003 26.67° C 20% 1024.5 hPa 0 mm - - -

* Rain latest hour (hover to see other rain measurements)
** Current wind speed in m/s (hover to see current wind gust speed)